NORTHEAST SUFFOLK  -  Frost Advisory Frost Advisory        NORTHWEST SUFFOLK  -  Frost Advisory Frost Advisory        SOUTHEAST SUFFOLK  -  Frost Advisory Frost Advisory        SOUTHWEST SUFFOLK  -  Frost Advisory Frost Advisory      

Active alerts

Northwest Suffolk
  Details for Northwest Suffolk Frost Advisory
Southwest Suffolk
  Details for Southwest Suffolk Frost Advisory
Northeast Suffolk
  Details for Northeast Suffolk Frost Advisory
Southeast Suffolk
  Details for Southeast Suffolk Frost Advisory


WXM80 ListenWXM80 Stop

You find our weather info also at:

UK Metoffice

WeatherCloud

Weather Underground

Northeastern Weather Network

AWEKAS

Citizen Weather Observer Program (CWOP)

HAMweather, WeatherForYou, PWS Weather


Weather Underground History page Text

Daily Summary for January 3, 2017 Units:  Both    English   Metric
« Previous Day
Next Day »
Daily Weekly Monthly Yearly Custom
  High: Low: Average:
Temperature: 43.6 °F /  6.4 °C 38.6 °F /  3.7 °C 41.5 °F /  5.3 °C
Dew Point: 43.1 °F /  6.2 °C 37.8 °F /  3.2 °C 41 °F /  5 °C
Humidity: 98 % 97 % 98 %
Wind Speed: 17.3 mph /  27.8 km/h - 9.2 mph /  14.8 km/h
Wind Gust: 29.0 mph /  46.7 km/h - -
Wind:- - East
Pressure: 30.24 in /  1023.9 hPa 29.42 in /  996.2 hPa -
Precipitation: 0.00 in /  0 mm    
Historical Graphs
 
 
Tabular Data for January 3, 2017
Time Temperature Dew Point Pressure Wind Wind Speed Wind Gust Humidity Rainfall Rate (Hourly)
00:01 38.6 °F /  3.7 °C 37.8 °F /  3.2 °C 30.24 in /  1023.9 hPa ENE 9.6 mph /  15.4 km/h 29.0 mph /  46.7 km/h 97 % 0.01 in /  0.25 mm
00:06 38.6 °F /  3.7 °C 37.8 °F /  3.2 °C 30.24 in /  1023.9 hPa NE 9.7 mph /  15.6 km/h 29.0 mph /  46.7 km/h 97 % 0.01 in /  0.25 mm
00:11 38.6 °F /  3.7 °C 37.8 °F /  3.2 °C 30.23 in /  1023.6 hPa East 11.7 mph /  18.8 km/h 29.0 mph /  46.7 km/h 97 % 0.01 in /  0.25 mm
00:16 38.6 °F /  3.7 °C 37.8 °F /  3.2 °C 30.23 in /  1023.6 hPa NE 8.2 mph /  13.2 km/h 29.0 mph /  46.7 km/h 97 % 0.01 in /  0.25 mm
00:21 38.6 °F /  3.7 °C 37.8 °F /  3.2 °C 30.23 in /  1023.6 hPa ENE 9.1 mph /  14.6 km/h 29.0 mph /  46.7 km/h 97 % 0.00 in /  0 mm
00:26 38.6 °F /  3.7 °C 37.8 °F /  3.2 °C 30.22 in /  1023.2 hPa ENE 9.0 mph /  14.5 km/h 29.0 mph /  46.7 km/h 97 % 0.00 in /  0 mm
00:31 38.6 °F /  3.7 °C 37.8 °F /  3.2 °C 30.22 in /  1023.2 hPa NE 9.2 mph /  14.8 km/h 29.0 mph /  46.7 km/h 97 % 0.00 in /  0 mm
00:37 38.7 °F /  3.7 °C 37.9 °F /  3.3 °C 30.21 in /  1022.9 hPa NE 8.1 mph /  13 km/h 29.0 mph /  46.7 km/h 97 % 0.00 in /  0 mm
00:42 38.7 °F /  3.7 °C 37.9 °F /  3.3 °C 30.21 in /  1022.9 hPa East 8.0 mph /  12.9 km/h 29.0 mph /  46.7 km/h 97 % 0.00 in /  0 mm
00:47 38.9 °F /  3.8 °C 38.1 °F /  3.4 °C 30.21 in /  1022.9 hPa ENE 8.5 mph /  13.7 km/h 29.0 mph /  46.7 km/h 97 % 0.00 in /  0 mm
00:52 39.1 °F /  3.9 °C 38.3 °F /  3.5 °C 30.21 in /  1022.9 hPa NE 9.1 mph /  14.6 km/h 29.0 mph /  46.7 km/h 97 % 0.00 in /  0 mm
00:57 39.4 °F /  4.1 °C 38.6 °F /  3.7 °C 30.20 in /  1022.6 hPa ENE 10.8 mph /  17.4 km/h 29.0 mph /  46.7 km/h 97 % 0.00 in /  0 mm
01:02 39.7 °F /  4.3 °C 38.9 °F /  3.8 °C 30.20 in /  1022.6 hPa East 10.2 mph /  16.4 km/h 29.0 mph /  46.7 km/h 97 % 0.00 in /  0 mm
01:07 39.8 °F /  4.3 °C 39.0 °F /  3.9 °C 30.20 in /  1022.6 hPa ENE 10.2 mph /  16.4 km/h 29.0 mph /  46.7 km/h 97 % 0.00 in /  0 mm
01:12 39.9 °F /  4.4 °C 39.1 °F /  3.9 °C 30.20 in /  1022.6 hPa East 9.5 mph /  15.3 km/h 29.0 mph /  46.7 km/h 97 % 0.00 in /  0 mm
01:17 40.0 °F /  4.4 °C 39.2 °F /  4 °C 30.20 in /  1022.6 hPa ENE 7.9 mph /  12.7 km/h 29.0 mph /  46.7 km/h 97 % 0.00 in /  0 mm
01:22 40.1 °F /  4.5 °C 39.3 °F /  4.1 °C 30.20 in /  1022.6 hPa ENE 9.9 mph /  15.9 km/h 29.0 mph /  46.7 km/h 97 % 0.00 in /  0 mm
01:27 40.1 °F /  4.5 °C 39.3 °F /  4.1 °C 30.20 in /  1022.6 hPa ENE 10.6 mph /  17.1 km/h 29.0 mph /  46.7 km/h 97 % 0.00 in /  0 mm
01:32 40.1 °F /  4.5 °C 39.3 °F /  4.1 °C 30.20 in /  1022.6 hPa ENE 9.6 mph /  15.4 km/h 29.0 mph /  46.7 km/h 97 % 0.00 in /  0 mm
01:37 40.1 °F /  4.5 °C 39.3 °F /  4.1 °C 30.20 in /  1022.6 hPa ENE 7.9 mph /  12.7 km/h 29.0 mph /  46.7 km/h 97 % 0.01 in /  0.25 mm
01:42 40.2 °F /  4.6 °C 39.4 °F /  4.1 °C 30.20 in /  1022.6 hPa East 7.6 mph /  12.2 km/h 29.0 mph /  46.7 km/h 97 % 0.01 in /  0.25 mm
01:47 40.3 °F /  4.6 °C 39.5 °F /  4.2 °C 30.20 in /  1022.6 hPa ENE 9.0 mph /  14.5 km/h 29.0 mph /  46.7 km/h 97 % 0.01 in /  0.25 mm
01:52 40.4 °F /  4.7 °C 39.6 °F /  4.2 °C 30.20 in /  1022.6 hPa East 7.1 mph /  11.4 km/h 29.0 mph /  46.7 km/h 97 % 0.01 in /  0.25 mm
01:58 40.5 °F /  4.7 °C 39.7 °F /  4.3 °C 30.20 in /  1022.6 hPa ENE 8.7 mph /  14 km/h 29.0 mph /  46.7 km/h 97 % 0.01 in /  0.25 mm
02:03 40.4 °F /  4.7 °C 39.6 °F /  4.2 °C 30.20 in /  1022.6 hPa East 8.8 mph /  14.2 km/h 29.0 mph /  46.7 km/h 97 % 0.01 in /  0.25 mm
02:08 40.4 °F /  4.7 °C 39.6 °F /  4.2 °C 30.20 in /  1022.6 hPa East 10.2 mph /  16.4 km/h 29.0 mph /  46.7 km/h 97 % 0.01 in /  0.25 mm
02:13 40.4 °F /  4.7 °C 39.6 °F /  4.2 °C 30.20 in /  1022.6 hPa ENE 9.2 mph /  14.8 km/h 29.0 mph /  46.7 km/h 97 % 0.01 in /  0.25 mm
02:18 40.3 °F /  4.6 °C 39.5 °F /  4.2 °C 30.20 in /  1022.6 hPa ENE 8.2 mph /  13.2 km/h 29.0 mph /  46.7 km/h 97 % 0.01 in /  0.25 mm
02:23 40.3 °F /  4.6 °C 39.5 °F /  4.2 °C 30.20 in /  1022.6 hPa ENE 8.8 mph /  14.2 km/h 29.0 mph /  46.7 km/h 97 % 0.01 in /  0.25 mm
02:28 40.3 °F /  4.6 °C 39.5 °F /  4.2 °C 30.19 in /  1022.2 hPa East 10.7 mph /  17.2 km/h 29.0 mph /  46.7 km/h 97 % 0.02 in /  0.51 mm
02:33 40.3 °F /  4.6 °C 39.5 °F /  4.2 °C 30.19 in /  1022.2 hPa ENE 9.1 mph /  14.6 km/h 29.0 mph /  46.7 km/h 97 % 0.02 in /  0.51 mm
02:38 40.3 °F /  4.6 °C 39.5 °F /  4.2 °C 30.18 in /  1021.9 hPa ENE 13.0 mph /  20.9 km/h 29.0 mph /  46.7 km/h 97 % 0.01 in /  0.25 mm
02:43 40.2 °F /  4.6 °C 39.4 °F /  4.1 °C 30.18 in /  1021.9 hPa ENE 11.3 mph /  18.2 km/h 29.0 mph /  46.7 km/h 97 % 0.01 in /  0.25 mm
02:48 40.2 °F /  4.6 °C 39.4 °F /  4.1 °C 30.17 in /  1021.6 hPa ENE 10.4 mph /  16.7 km/h 29.0 mph /  46.7 km/h 97 % 0.01 in /  0.25 mm
02:53 40.2 °F /  4.6 °C 39.4 °F /  4.1 °C 30.17 in /  1021.6 hPa ENE 11.0 mph /  17.7 km/h 29.0 mph /  46.7 km/h 97 % 0.01 in /  0.25 mm
02:58 40.1 °F /  4.5 °C 39.3 °F /  4.1 °C 30.17 in /  1021.6 hPa ENE 10.6 mph /  17.1 km/h 29.0 mph /  46.7 km/h 97 % 0.01 in /  0.25 mm
03:03 40.1 °F /  4.5 °C 39.3 °F /  4.1 °C 30.17 in /  1021.6 hPa ENE 11.1 mph /  17.9 km/h 29.0 mph /  46.7 km/h 97 % 0.01 in /  0.25 mm
03:08 40.1 °F /  4.5 °C 39.3 °F /  4.1 °C 30.17 in /  1021.6 hPa ENE 10.6 mph /  17.1 km/h 29.0 mph /  46.7 km/h 97 % 0.01 in /  0.25 mm
03:13 40.0 °F /  4.4 °C 39.2 °F /  4 °C 30.17 in /  1021.6 hPa ENE 11.2 mph /  18 km/h 29.0 mph /  46.7 km/h 97 % 0.01 in /  0.25 mm
03:19 40.0 °F /  4.4 °C 39.2 °F /  4 °C 30.16 in /  1021.2 hPa East 8.8 mph /  14.2 km/h 29.0 mph /  46.7 km/h 97 % 0.01 in /  0.25 mm
03:24 39.8 °F /  4.3 °C 39.0 °F /  3.9 °C 30.16 in /  1021.2 hPa NE 10.7 mph /  17.2 km/h 29.0 mph /  46.7 km/h 97 % 0.01 in /  0.25 mm
03:29 39.7 °F /  4.3 °C 38.9 °F /  3.8 °C 30.16 in /  1021.2 hPa ENE 8.0 mph /  12.9 km/h 29.0 mph /  46.7 km/h 97 % 0.00 in /  0 mm
03:34 39.6 °F /  4.2 °C 38.8 °F /  3.8 °C 30.15 in /  1020.9 hPa ENE 9.3 mph /  15 km/h 29.0 mph /  46.7 km/h 97 % 0.00 in /  0 mm
03:39 39.5 °F /  4.2 °C 38.7 °F /  3.7 °C 30.15 in /  1020.9 hPa ENE 11.6 mph /  18.7 km/h 29.0 mph /  46.7 km/h 97 % 0.00 in /  0 mm
03:44 39.5 °F /  4.2 °C 38.7 °F /  3.7 °C 30.15 in /  1020.9 hPa ENE 12.4 mph /  20 km/h 29.0 mph /  46.7 km/h 97 % 0.00 in /  0 mm
03:49 39.4 °F /  4.1 °C 38.6 °F /  3.7 °C 30.14 in /  1020.5 hPa ENE 10.5 mph /  16.9 km/h 29.0 mph /  46.7 km/h 97 % 0.00 in /  0 mm
03:54 39.4 °F /  4.1 °C 38.6 °F /  3.7 °C 30.14 in /  1020.5 hPa NE 12.5 mph /  20.1 km/h 29.0 mph /  46.7 km/h 97 % 0.00 in /  0 mm
03:59 39.4 °F /  4.1 °C 38.6 °F /  3.7 °C 30.13 in /  1020.2 hPa ENE 9.9 mph /  15.9 km/h 29.0 mph /  46.7 km/h 97 % 0.00 in /  0 mm
04:04 39.4 °F /  4.1 °C 38.6 °F /  3.7 °C 30.13 in /  1020.2 hPa ENE 14.0 mph /  22.5 km/h 22.0 mph /  35.4 km/h 97 % 0.00 in /  0 mm
04:09 39.4 °F /  4.1 °C 38.6 °F /  3.7 °C 30.13 in /  1020.2 hPa ENE 10.0 mph /  16.1 km/h 18.0 mph /  29 km/h 97 % 0.00 in /  0 mm
04:14 39.4 °F /  4.1 °C 38.6 °F /  3.7 °C 30.13 in /  1020.2 hPa ENE 13.0 mph /  20.9 km/h 20.0 mph /  32.2 km/h 97 % 0.00 in /  0 mm
04:19 39.4 °F /  4.1 °C 38.6 °F /  3.7 °C 30.12 in /  1019.9 hPa ENE 14.6 mph /  23.5 km/h 29.0 mph /  46.7 km/h 97 % 0.00 in /  0 mm
04:24 39.3 °F /  4.1 °C 38.5 °F /  3.6 °C 30.12 in /  1019.9 hPa ENE 12.0 mph /  19.3 km/h 22.0 mph /  35.4 km/h 97 % 0.00 in /  0 mm
04:29 39.3 °F /  4.1 °C 38.5 °F /  3.6 °C 30.12 in /  1019.9 hPa ENE 10.4 mph /  16.7 km/h 29.0 mph /  46.7 km/h 97 % 0.00 in /  0 mm
04:34 39.3 °F /  4.1 °C 38.5 °F /  3.6 °C 30.12 in /  1019.9 hPa ENE 13.0 mph /  20.9 km/h 21.0 mph /  33.8 km/h 97 % 0.00 in /  0 mm
04:39 39.3 °F /  4.1 °C 38.5 °F /  3.6 °C 30.12 in /  1019.9 hPa East 12.4 mph /  20 km/h 29.0 mph /  46.7 km/h 97 % 0.00 in /  0 mm
04:44 39.3 °F /  4.1 °C 38.5 °F /  3.6 °C 30.12 in /  1019.9 hPa ENE 13.1 mph /  21.1 km/h 29.0 mph /  46.7 km/h 97 % 0.00 in /  0 mm
04:49 39.3 °F /  4.1 °C 38.5 °F /  3.6 °C 30.11 in /  1019.5 hPa ENE 12.0 mph /  19.3 km/h 17.0 mph /  27.4 km/h 97 % 0.00 in /  0 mm
04:54 39.3 °F /  4.1 °C 38.5 °F /  3.6 °C 30.11 in /  1019.5 hPa ENE 10.0 mph /  16.1 km/h 17.0 mph /  27.4 km/h 97 % 0.00 in /  0 mm
04:59 39.3 °F /  4.1 °C 38.5 °F /  3.6 °C 30.11 in /  1019.5 hPa ENE 13.2 mph /  21.2 km/h 29.0 mph /  46.7 km/h 97 % 0.00 in /  0 mm
05:04 39.2 °F /  4 °C 38.4 °F /  3.6 °C 30.11 in /  1019.5 hPa East 10.8 mph /  17.4 km/h 29.0 mph /  46.7 km/h 97 % 0.00 in /  0 mm
05:09 39.2 °F /  4 °C 38.4 °F /  3.6 °C 30.10 in /  1019.2 hPa ENE 12.0 mph /  19.3 km/h 17.0 mph /  27.4 km/h 97 % 0.00 in /  0 mm
05:14 39.2 °F /  4 °C 38.4 °F /  3.6 °C 30.10 in /  1019.2 hPa ENE 14.0 mph /  22.5 km/h 18.0 mph /  29 km/h 97 % 0.00 in /  0 mm
05:19 39.2 °F /  4 °C 38.4 °F /  3.6 °C 30.10 in /  1019.2 hPa ENE 12.0 mph /  19.3 km/h 17.0 mph /  27.4 km/h 97 % 0.00 in /  0 mm
05:24 39.2 °F /  4 °C 38.4 °F /  3.6 °C 30.10 in /  1019.2 hPa ENE 12.0 mph /  19.3 km/h 20.0 mph /  32.2 km/h 97 % 0.00 in /  0 mm
05:29 39.2 °F /  4 °C 38.4 °F /  3.6 °C 30.10 in /  1019.2 hPa ENE 14.0 mph /  22.5 km/h 18.0 mph /  29 km/h 97 % 0.00 in /  0 mm
05:34 39.2 °F /  4 °C 38.4 °F /  3.6 °C 30.10 in /  1019.2 hPa ENE 10.6 mph /  17.1 km/h 29.0 mph /  46.7 km/h 97 % 0.00 in /  0 mm
05:39 39.2 °F /  4 °C 38.4 °F /  3.6 °C 30.10 in /  1019.2 hPa ENE 9.0 mph /  14.5 km/h 16.0 mph /  25.7 km/h 97 % 0.00 in /  0 mm
05:44 39.2 °F /  4 °C 38.4 °F /  3.6 °C 30.10 in /  1019.2 hPa ENE 10.0 mph /  16.1 km/h 17.0 mph /  27.4 km/h 97 % 0.00 in /  0 mm
05:49 39.2 °F /  4 °C 38.4 °F /  3.6 °C 30.10 in /  1019.2 hPa ENE 12.5 mph /  20.1 km/h 29.0 mph /  46.7 km/h 97 % 0.00 in /  0 mm
05:54 39.2 °F /  4 °C 38.4 °F /  3.6 °C 30.09 in /  1018.8 hPa ENE 12.0 mph /  19.3 km/h 18.0 mph /  29 km/h 97 % 0.00 in /  0 mm
05:59 39.2 °F /  4 °C 38.4 °F /  3.6 °C 30.09 in /  1018.8 hPa NE 12.0 mph /  19.3 km/h 29.0 mph /  46.7 km/h 97 % 0.00 in /  0 mm
06:04 39.2 °F /  4 °C 38.4 °F /  3.6 °C 30.09 in /  1018.8 hPa NE 11.1 mph /  17.9 km/h 29.0 mph /  46.7 km/h 97 % 0.00 in /  0 mm
06:09 39.2 °F /  4 °C 38.4 °F /  3.6 °C 30.09 in /  1018.8 hPa East 10.0 mph /  16.1 km/h 29.0 mph /  46.7 km/h 97 % 0.00 in /  0 mm
06:14 39.2 °F /  4 °C 38.4 °F /  3.6 °C 30.09 in /  1018.8 hPa NE 10.6 mph /  17.1 km/h 29.0 mph /  46.7 km/h 97 % 0.00 in /  0 mm
06:19 39.3 °F /  4.1 °C 38.8 °F /  3.8 °C 30.09 in /  1018.8 hPa ENE 9.9 mph /  15.9 km/h 29.0 mph /  46.7 km/h 98 % 0.00 in /  0 mm
06:24 39.3 °F /  4.1 °C 38.8 °F /  3.8 °C 30.08 in /  1018.5 hPa ENE 12.9 mph /  20.8 km/h 29.0 mph /  46.7 km/h 98 % 0.00 in /  0 mm
06:30 39.5 °F /  4.2 °C 38.7 °F /  3.7 °C 30.07 in /  1018.2 hPa NE 10.7 mph /  17.2 km/h 29.0 mph /  46.7 km/h 97 % 0.00 in /  0 mm
06:35 39.5 °F /  4.2 °C 38.7 °F /  3.7 °C 30.07 in /  1018.2 hPa East 9.5 mph /  15.3 km/h 29.0 mph /  46.7 km/h 97 % 0.00 in /  0 mm
06:40 39.7 °F /  4.3 °C 38.9 °F /  3.8 °C 30.07 in /  1018.2 hPa East 10.0 mph /  16.1 km/h 29.0 mph /  46.7 km/h 97 % 0.00 in /  0 mm
06:45 40.0 °F /  4.4 °C 39.5 °F /  4.2 °C 30.06 in /  1017.8 hPa ENE 10.8 mph /  17.4 km/h 29.0 mph /  46.7 km/h 98 % 0.00 in /  0 mm
06:50 40.2 °F /  4.6 °C 39.7 °F /  4.3 °C 30.06 in /  1017.8 hPa ENE 11.7 mph /  18.8 km/h 29.0 mph /  46.7 km/h 98 % 0.00 in /  0 mm
06:55 40.3 °F /  4.6 °C 39.8 °F /  4.3 °C 30.06 in /  1017.8 hPa East 10.3 mph /  16.6 km/h 29.0 mph /  46.7 km/h 98 % 0.00 in /  0 mm
07:00 40.4 °F /  4.7 °C 39.9 °F /  4.4 °C 30.06 in /  1017.8 hPa ENE 11.2 mph /  18 km/h 29.0 mph /  46.7 km/h 98 % 0.00 in /  0 mm
07:05 40.4 °F /  4.7 °C 39.9 °F /  4.4 °C 30.05 in /  1017.5 hPa ENE 10.0 mph /  16.1 km/h 29.0 mph /  46.7 km/h 98 % 0.00 in /  0 mm
07:10 40.5 °F /  4.7 °C 40.0 °F /  4.4 °C 30.05 in /  1017.5 hPa East 12.2 mph /  19.6 km/h 29.0 mph /  46.7 km/h 98 % 0.00 in /  0 mm
07:15 40.5 °F /  4.7 °C 40.0 °F /  4.4 °C 30.05 in /  1017.5 hPa ENE 9.1 mph /  14.6 km/h 29.0 mph /  46.7 km/h 98 % 0.00 in /  0 mm
07:20 40.6 °F /  4.8 °C 40.1 °F /  4.5 °C 30.04 in /  1017.2 hPa ENE 13.6 mph /  21.9 km/h 29.0 mph /  46.7 km/h 98 % 0.00 in /  0 mm
07:25 40.6 °F /  4.8 °C 40.1 °F /  4.5 °C 30.04 in /  1017.2 hPa East 8.6 mph /  13.8 km/h 29.0 mph /  46.7 km/h 98 % 0.00 in /  0 mm
07:30 40.6 °F /  4.8 °C 40.1 °F /  4.5 °C 30.04 in /  1017.2 hPa ENE 11.3 mph /  18.2 km/h 29.0 mph /  46.7 km/h 98 % 0.00 in /  0 mm
07:35 40.7 °F /  4.8 °C 40.2 °F /  4.6 °C 30.04 in /  1017.2 hPa ENE 8.7 mph /  14 km/h 29.0 mph /  46.7 km/h 98 % 0.00 in /  0 mm
07:40 40.8 °F /  4.9 °C 40.3 °F /  4.6 °C 30.03 in /  1016.8 hPa ENE 10.8 mph /  17.4 km/h 29.0 mph /  46.7 km/h 98 % 0.00 in /  0 mm
07:45 40.8 °F /  4.9 °C 40.3 °F /  4.6 °C 30.04 in /  1017.2 hPa ENE 10.9 mph /  17.5 km/h 29.0 mph /  46.7 km/h 98 % 0.00 in /  0 mm
07:50 40.9 °F /  4.9 °C 40.4 °F /  4.7 °C 30.03 in /  1016.8 hPa East 13.4 mph /  21.6 km/h 29.0 mph /  46.7 km/h 98 % 0.00 in /  0 mm
07:55 41.0 °F /  5 °C 40.5 °F /  4.7 °C 30.02 in /  1016.5 hPa East 12.4 mph /  20 km/h 29.0 mph /  46.7 km/h 98 % 0.00 in /  0 mm
08:01 41.0 °F /  5 °C 40.5 °F /  4.7 °C 30.02 in /  1016.5 hPa NE 12.9 mph /  20.8 km/h 29.0 mph /  46.7 km/h 98 % 0.00 in /  0 mm
08:06 41.1 °F /  5.1 °C 40.6 °F /  4.8 °C 30.01 in /  1016.1 hPa NE 11.2 mph /  18 km/h 29.0 mph /  46.7 km/h 98 % 0.00 in /  0 mm
08:11 41.1 °F /  5.1 °C 40.6 °F /  4.8 °C 30.01 in /  1016.1 hPa ENE 12.0 mph /  19.3 km/h 29.0 mph /  46.7 km/h 98 % 0.00 in /  0 mm
08:16 41.1 °F /  5.1 °C 40.6 °F /  4.8 °C 30.01 in /  1016.1 hPa East 11.7 mph /  18.8 km/h 29.0 mph /  46.7 km/h 98 % 0.00 in /  0 mm
08:21 41.2 °F /  5.1 °C 40.7 °F /  4.8 °C 30.01 in /  1016.1 hPa East 12.1 mph /  19.5 km/h 29.0 mph /  46.7 km/h 98 % 0.00 in /  0 mm
08:26 41.2 °F /  5.1 °C 40.7 °F /  4.8 °C 30.02 in /  1016.5 hPa ENE 11.4 mph /  18.3 km/h 29.0 mph /  46.7 km/h 98 % 0.00 in /  0 mm
08:31 41.2 °F /  5.1 °C 40.7 °F /  4.8 °C 30.03 in /  1016.8 hPa East 11.1 mph /  17.9 km/h 29.0 mph /  46.7 km/h 98 % 0.00 in /  0 mm
08:36 41.2 °F /  5.1 °C 40.7 °F /  4.8 °C 30.03 in /  1016.8 hPa ENE 12.7 mph /  20.4 km/h 29.0 mph /  46.7 km/h 98 % 0.00 in /  0 mm
08:41 41.3 °F /  5.2 °C 40.8 °F /  4.9 °C 30.02 in /  1016.5 hPa ENE 11.1 mph /  17.9 km/h 29.0 mph /  46.7 km/h 98 % 0.00 in /  0 mm
08:46 41.3 °F /  5.2 °C 40.8 °F /  4.9 °C 30.01 in /  1016.1 hPa NE 12.0 mph /  19.3 km/h 29.0 mph /  46.7 km/h 98 % 0.00 in /  0 mm
08:51 41.3 °F /  5.2 °C 40.8 °F /  4.9 °C 30.01 in /  1016.1 hPa East 10.7 mph /  17.2 km/h 29.0 mph /  46.7 km/h 98 % 0.00 in /  0 mm
08:56 41.4 °F /  5.2 °C 40.9 °F /  4.9 °C 30.01 in /  1016.1 hPa East 10.5 mph /  16.9 km/h 29.0 mph /  46.7 km/h 98 % 0.00 in /  0 mm
09:01 41.4 °F /  5.2 °C 40.9 °F /  4.9 °C 30.00 in /  1015.8 hPa ENE 10.7 mph /  17.2 km/h 29.0 mph /  46.7 km/h 98 % 0.00 in /  0 mm
09:06 41.5 °F /  5.3 °C 41.0 °F /  5 °C 30.00 in /  1015.8 hPa East 10.7 mph /  17.2 km/h 29.0 mph /  46.7 km/h 98 % 0.00 in /  0 mm
09:12 41.5 °F /  5.3 °C 41.0 °F /  5 °C 30.00 in /  1015.8 hPa ENE 11.4 mph /  18.3 km/h 29.0 mph /  46.7 km/h 98 % 0.00 in /  0 mm
09:17 41.5 °F /  5.3 °C 41.0 °F /  5 °C 30.00 in /  1015.8 hPa ENE 12.6 mph /  20.3 km/h 29.0 mph /  46.7 km/h 98 % 0.00 in /  0 mm
09:22 41.5 °F /  5.3 °C 41.0 °F /  5 °C 30.00 in /  1015.8 hPa ENE 12.7 mph /  20.4 km/h 29.0 mph /  46.7 km/h 98 % 0.00 in /  0 mm
09:27 41.6 °F /  5.3 °C 41.1 °F /  5.1 °C 29.99 in /  1015.5 hPa ENE 13.1 mph /  21.1 km/h 29.0 mph /  46.7 km/h 98 % 0.00 in /  0 mm
09:32 41.6 °F /  5.3 °C 41.1 °F /  5.1 °C 29.99 in /  1015.5 hPa ENE 12.6 mph /  20.3 km/h 29.0 mph /  46.7 km/h 98 % 0.00 in /  0 mm
09:37 41.6 °F /  5.3 °C 41.1 °F /  5.1 °C 30.00 in /  1015.8 hPa NE 12.9 mph /  20.8 km/h 29.0 mph /  46.7 km/h 98 % 0.00 in /  0 mm
09:42 41.7 °F /  5.4 °C 41.2 °F /  5.1 °C 30.00 in /  1015.8 hPa East 12.1 mph /  19.5 km/h 29.0 mph /  46.7 km/h 98 % 0.00 in /  0 mm
09:47 41.8 °F /  5.4 °C 41.3 °F /  5.2 °C 29.99 in /  1015.5 hPa East 9.8 mph /  15.8 km/h 29.0 mph /  46.7 km/h 98 % 0.00 in /  0 mm
09:52 41.8 °F /  5.4 °C 41.3 °F /  5.2 °C 29.99 in /  1015.5 hPa ENE 11.3 mph /  18.2 km/h 29.0 mph /  46.7 km/h 98 % 0.00 in /  0 mm
09:57 41.8 °F /  5.4 °C 41.3 °F /  5.2 °C 29.99 in /  1015.5 hPa East 10.4 mph /  16.7 km/h 29.0 mph /  46.7 km/h 98 % 0.00 in /  0 mm
10:02 41.9 °F /  5.5 °C 41.4 °F /  5.2 °C 29.98 in /  1015.1 hPa ENE 9.9 mph /  15.9 km/h 29.0 mph /  46.7 km/h 98 % 0.00 in /  0 mm
10:07 41.9 °F /  5.5 °C 41.4 °F /  5.2 °C 29.98 in /  1015.1 hPa ENE 11.8 mph /  19 km/h 29.0 mph /  46.7 km/h 98 % 0.00 in /  0 mm
10:12 41.9 °F /  5.5 °C 41.4 °F /  5.2 °C 29.97 in /  1014.8 hPa ENE 11.8 mph /  19 km/h 29.0 mph /  46.7 km/h 98 % 0.00 in /  0 mm
10:17 42.0 °F /  5.6 °C 41.5 °F /  5.3 °C 29.97 in /  1014.8 hPa ENE 13.6 mph /  21.9 km/h 29.0 mph /  46.7 km/h 98 % 0.00 in /  0 mm
10:22 42.0 °F /  5.6 °C 41.5 °F /  5.3 °C 29.96 in /  1014.4 hPa East 12.0 mph /  19.3 km/h 29.0 mph /  46.7 km/h 98 % 0.00 in /  0 mm
10:28 42.0 °F /  5.6 °C 41.5 °F /  5.3 °C 29.96 in /  1014.4 hPa ENE 13.3 mph /  21.4 km/h 29.0 mph /  46.7 km/h 98 % 0.00 in /  0 mm
10:33 42.0 °F /  5.6 °C 41.5 °F /  5.3 °C 29.95 in /  1014.1 hPa ENE 12.1 mph /  19.5 km/h 29.0 mph /  46.7 km/h 98 % 0.00 in /  0 mm
10:38 42.1 °F /  5.6 °C 41.6 °F /  5.3 °C 29.95 in /  1014.1 hPa ENE 10.6 mph /  17.1 km/h 29.0 mph /  46.7 km/h 98 % 0.00 in /  0 mm
10:43 42.1 °F /  5.6 °C 41.6 °F /  5.3 °C 29.94 in /  1013.8 hPa East 12.4 mph /  20 km/h 29.0 mph /  46.7 km/h 98 % 0.00 in /  0 mm
10:48 42.2 °F /  5.7 °C 41.7 °F /  5.4 °C 29.94 in /  1013.8 hPa ENE 12.7 mph /  20.4 km/h 29.0 mph /  46.7 km/h 98 % 0.00 in /  0 mm
10:53 42.2 °F /  5.7 °C 41.7 °F /  5.4 °C 29.93 in /  1013.4 hPa East 10.3 mph /  16.6 km/h 29.0 mph /  46.7 km/h 98 % 0.00 in /  0 mm
10:58 42.2 °F /  5.7 °C 41.7 °F /  5.4 °C 29.92 in /  1013.1 hPa East 12.9 mph /  20.8 km/h 29.0 mph /  46.7 km/h 98 % 0.00 in /  0 mm
11:03 42.3 °F /  5.7 °C 41.8 °F /  5.4 °C 29.92 in /  1013.1 hPa ENE 12.9 mph /  20.8 km/h 29.0 mph /  46.7 km/h 98 % 0.00 in /  0 mm
11:08 42.3 °F /  5.7 °C 41.8 °F /  5.4 °C 29.92 in /  1013.1 hPa ENE 10.9 mph /  17.5 km/h 29.0 mph /  46.7 km/h 98 % 0.00 in /  0 mm
11:13 42.3 °F /  5.7 °C 41.8 °F /  5.4 °C 29.91 in /  1012.8 hPa ENE 11.5 mph /  18.5 km/h 29.0 mph /  46.7 km/h 98 % 0.00 in /  0 mm
11:18 42.2 °F /  5.7 °C 41.7 °F /  5.4 °C 29.90 in /  1012.4 hPa ENE 12.7 mph /  20.4 km/h 29.0 mph /  46.7 km/h 98 % 0.00 in /  0 mm
11:23 42.2 °F /  5.7 °C 41.7 °F /  5.4 °C 29.90 in /  1012.4 hPa ENE 12.5 mph /  20.1 km/h 29.0 mph /  46.7 km/h 98 % 0.00 in /  0 mm
11:28 42.2 °F /  5.7 °C 41.7 °F /  5.4 °C 29.90 in /  1012.4 hPa East 10.7 mph /  17.2 km/h 29.0 mph /  46.7 km/h 98 % 0.00 in /  0 mm
11:33 42.2 °F /  5.7 °C 41.7 °F /  5.4 °C 29.88 in /  1011.7 hPa East 11.5 mph /  18.5 km/h 29.0 mph /  46.7 km/h 98 % 0.00 in /  0 mm
11:38 42.2 °F /  5.7 °C 41.7 °F /  5.4 °C 29.87 in /  1011.4 hPa ESE 9.9 mph /  15.9 km/h 29.0 mph /  46.7 km/h 98 % 0.00 in /  0 mm
11:43 42.2 °F /  5.7 °C 41.7 °F /  5.4 °C 29.86 in /  1011.1 hPa ENE 11.2 mph /  18 km/h 29.0 mph /  46.7 km/h 98 % 0.00 in /  0 mm
11:48 42.2 °F /  5.7 °C 41.7 °F /  5.4 °C 29.86 in /  1011.1 hPa East 11.7 mph /  18.8 km/h 29.0 mph /  46.7 km/h 98 % 0.00 in /  0 mm
11:54 42.1 °F /  5.6 °C 41.6 °F /  5.3 °C 29.85 in /  1010.7 hPa ENE 11.4 mph /  18.3 km/h 29.0 mph /  46.7 km/h 98 % 0.00 in /  0 mm
11:59 42.2 °F /  5.7 °C 41.7 °F /  5.4 °C 29.85 in /  1010.7 hPa East 11.5 mph /  18.5 km/h 29.0 mph /  46.7 km/h 98 % 0.00 in /  0 mm
12:04 42.1 °F /  5.6 °C 41.6 °F /  5.3 °C 29.85 in /  1010.7 hPa East 12.2 mph /  19.6 km/h 29.0 mph /  46.7 km/h 98 % 0.00 in /  0 mm
12:09 42.2 °F /  5.7 °C 41.7 °F /  5.4 °C 29.84 in /  1010.4 hPa East 12.5 mph /  20.1 km/h 29.0 mph /  46.7 km/h 98 % 0.01 in /  0.25 mm
12:14 42.2 °F /  5.7 °C 41.7 °F /  5.4 °C 29.84 in /  1010.4 hPa East 13.1 mph /  21.1 km/h 29.0 mph /  46.7 km/h 98 % 0.01 in /  0.25 mm
12:19 42.2 °F /  5.7 °C 41.7 °F /  5.4 °C 29.83 in /  1010 hPa ENE 10.7 mph /  17.2 km/h 29.0 mph /  46.7 km/h 98 % 0.01 in /  0.25 mm
12:24 42.2 °F /  5.7 °C 41.7 °F /  5.4 °C 29.83 in /  1010 hPa East 10.3 mph /  16.6 km/h 29.0 mph /  46.7 km/h 98 % 0.01 in /  0.25 mm
12:29 42.2 °F /  5.7 °C 41.7 °F /  5.4 °C 29.82 in /  1009.7 hPa ENE 11.0 mph /  17.7 km/h 29.0 mph /  46.7 km/h 98 % 0.01 in /  0.25 mm
12:34 42.2 °F /  5.7 °C 41.7 °F /  5.4 °C 29.82 in /  1009.7 hPa East 10.7 mph /  17.2 km/h 29.0 mph /  46.7 km/h 98 % 0.01 in /  0.25 mm
12:39 42.3 °F /  5.7 °C 41.8 °F /  5.4 °C 29.81 in /  1009.4 hPa ENE 11.6 mph /  18.7 km/h 29.0 mph /  46.7 km/h 98 % 0.02 in /  0.51 mm
12:44 42.3 °F /  5.7 °C 41.8 °F /  5.4 °C 29.79 in /  1008.7 hPa ENE 13.0 mph /  20.9 km/h 18.0 mph /  29 km/h 98 % 0.00 in /  0 mm
12:49 42.3 °F /  5.7 °C 41.8 °F /  5.4 °C 29.79 in /  1008.7 hPa East 13.0 mph /  20.9 km/h 29.0 mph /  46.7 km/h 98 % 0.02 in /  0.51 mm
12:54 42.3 °F /  5.7 °C 41.8 °F /  5.4 °C 29.78 in /  1008.4 hPa ENE 13.0 mph /  20.9 km/h 18.0 mph /  29 km/h 98 % 0.00 in /  0 mm
12:59 42.4 °F /  5.8 °C 41.9 °F /  5.5 °C 29.78 in /  1008.4 hPa East 11.0 mph /  17.7 km/h 29.0 mph /  46.7 km/h 98 % 0.03 in /  0.76 mm
13:04 42.4 °F /  5.8 °C 41.9 °F /  5.5 °C 29.77 in /  1008 hPa East 14.0 mph /  22.5 km/h 29.0 mph /  46.7 km/h 98 % 0.02 in /  0.51 mm
13:09 42.4 °F /  5.8 °C 41.9 °F /  5.5 °C 29.76 in /  1007.7 hPa ENE 13.8 mph /  22.2 km/h 29.0 mph /  46.7 km/h 98 % 0.02 in /  0.51 mm
13:14 42.4 °F /  5.8 °C 41.9 °F /  5.5 °C 29.76 in /  1007.7 hPa ENE 10.1 mph /  16.3 km/h 29.0 mph /  46.7 km/h 98 % 0.02 in /  0.51 mm
13:19 42.4 °F /  5.8 °C 41.9 °F /  5.5 °C 29.76 in /  1007.7 hPa ENE 11.5 mph /  18.5 km/h 29.0 mph /  46.7 km/h 98 % 0.03 in /  0.76 mm
13:25 42.5 °F /  5.8 °C 42.0 °F /  5.6 °C 29.75 in /  1007.3 hPa ENE 10.7 mph /  17.2 km/h 29.0 mph /  46.7 km/h 98 % 0.03 in /  0.76 mm
13:30 42.5 °F /  5.8 °C 42.0 °F /  5.6 °C 29.75 in /  1007.3 hPa ENE 10.8 mph /  17.4 km/h 29.0 mph /  46.7 km/h 98 % 0.03 in /  0.76 mm
13:35 42.5 °F /  5.8 °C 42.0 °F /  5.6 °C 29.75 in /  1007.3 hPa East 11.1 mph /  17.9 km/h 29.0 mph /  46.7 km/h 98 % 0.03 in /  0.76 mm
13:40 42.5 °F /  5.8 °C 42.0 °F /  5.6 °C 29.75 in /  1007.3 hPa ENE 10.8 mph /  17.4 km/h 29.0 mph /  46.7 km/h 98 % 0.03 in /  0.76 mm
13:45 42.5 °F /  5.8 °C 42.0 °F /  5.6 °C 29.74 in /  1007 hPa East 10.8 mph /  17.4 km/h 29.0 mph /  46.7 km/h 98 % 0.03 in /  0.76 mm
13:50 42.5 °F /  5.8 °C 42.0 °F /  5.6 °C 29.73 in /  1006.7 hPa East 12.8 mph /  20.6 km/h 29.0 mph /  46.7 km/h 98 % 0.04 in /  1.02 mm
13:55 42.6 °F /  5.9 °C 42.1 °F /  5.6 °C 29.72 in /  1006.3 hPa East 13.1 mph /  21.1 km/h 29.0 mph /  46.7 km/h 98 % 0.04 in /  1.02 mm
14:00 42.6 °F /  5.9 °C 42.1 °F /  5.6 °C 29.72 in /  1006.3 hPa East 12.2 mph /  19.6 km/h 29.0 mph /  46.7 km/h 98 % 0.03 in /  0.76 mm
14:05 42.6 °F /  5.9 °C 42.1 °F /  5.6 °C 29.71 in /  1006 hPa ENE 12.1 mph /  19.5 km/h 29.0 mph /  46.7 km/h 98 % 0.03 in /  0.76 mm
14:10 42.6 °F /  5.9 °C 42.1 °F /  5.6 °C 29.71 in /  1006 hPa East 11.5 mph /  18.5 km/h 29.0 mph /  46.7 km/h 98 % 0.03 in /  0.76 mm
14:15 42.7 °F /  5.9 °C 42.2 °F /  5.7 °C 29.70 in /  1005.6 hPa East 12.2 mph /  19.6 km/h 29.0 mph /  46.7 km/h 98 % 0.03 in /  0.76 mm
14:20 42.7 °F /  5.9 °C 42.2 °F /  5.7 °C 29.70 in /  1005.6 hPa NE 12.1 mph /  19.5 km/h 29.0 mph /  46.7 km/h 98 % 0.02 in /  0.51 mm
14:25 42.7 °F /  5.9 °C 42.2 °F /  5.7 °C 29.70 in /  1005.6 hPa ENE 12.3 mph /  19.8 km/h 29.0 mph /  46.7 km/h 98 % 0.02 in /  0.51 mm
14:30 42.7 °F /  5.9 °C 42.2 °F /  5.7 °C 29.69 in /  1005.3 hPa East 11.6 mph /  18.7 km/h 29.0 mph /  46.7 km/h 98 % 0.02 in /  0.51 mm
14:35 42.8 °F /  6 °C 42.3 °F /  5.7 °C 29.68 in /  1005 hPa ENE 12.2 mph /  19.6 km/h 29.0 mph /  46.7 km/h 98 % 0.02 in /  0.51 mm
14:41 42.8 °F /  6 °C 42.3 °F /  5.7 °C 29.68 in /  1005 hPa East 13.7 mph /  22 km/h 29.0 mph /  46.7 km/h 98 % 0.01 in /  0.25 mm
14:46 42.8 °F /  6 °C 42.3 °F /  5.7 °C 29.68 in /  1005 hPa ENE 11.5 mph /  18.5 km/h 29.0 mph /  46.7 km/h 98 % 0.01 in /  0.25 mm
14:51 42.8 °F /  6 °C 42.3 °F /  5.7 °C 29.68 in /  1005 hPa East 11.6 mph /  18.7 km/h 29.0 mph /  46.7 km/h 98 % 0.00 in /  0 mm
14:56 42.8 °F /  6 °C 42.3 °F /  5.7 °C 29.67 in /  1004.6 hPa ENE 12.2 mph /  19.6 km/h 29.0 mph /  46.7 km/h 98 % 0.00 in /  0 mm
15:01 42.9 °F /  6.1 °C 42.4 °F /  5.8 °C 29.67 in /  1004.6 hPa East 11.5 mph /  18.5 km/h 29.0 mph /  46.7 km/h 98 % 0.00 in /  0 mm
15:06 42.9 °F /  6.1 °C 42.4 °F /  5.8 °C 29.67 in /  1004.6 hPa ENE 12.7 mph /  20.4 km/h 29.0 mph /  46.7 km/h 98 % 0.00 in /  0 mm
15:11 42.9 °F /  6.1 °C 42.4 °F /  5.8 °C 29.66 in /  1004.3 hPa East 9.6 mph /  15.4 km/h 29.0 mph /  46.7 km/h 98 % 0.00 in /  0 mm
15:16 42.9 °F /  6.1 °C 42.4 °F /  5.8 °C 29.66 in /  1004.3 hPa ENE 9.9 mph /  15.9 km/h 29.0 mph /  46.7 km/h 98 % 0.00 in /  0 mm
15:21 42.9 °F /  6.1 °C 42.4 °F /  5.8 °C 29.66 in /  1004.3 hPa ENE 12.1 mph /  19.5 km/h 29.0 mph /  46.7 km/h 98 % 0.00 in /  0 mm
15:26 42.9 °F /  6.1 °C 42.4 °F /  5.8 °C 29.66 in /  1004.3 hPa East 10.3 mph /  16.6 km/h 29.0 mph /  46.7 km/h 98 % 0.01 in /  0.25 mm
15:31 42.9 °F /  6.1 °C 42.4 °F /  5.8 °C 29.66 in /  1004.3 hPa ENE 10.8 mph /  17.4 km/h 29.0 mph /  46.7 km/h 98 % 0.01 in /  0.25 mm
15:36 43.0 °F /  6.1 °C 42.5 °F /  5.8 °C 29.66 in /  1004.3 hPa ENE 9.4 mph /  15.1 km/h 29.0 mph /  46.7 km/h 98 % 0.01 in /  0.25 mm
15:41 43.0 °F /  6.1 °C 42.5 °F /  5.8 °C 29.65 in /  1003.9 hPa ENE 11.3 mph /  18.2 km/h 29.0 mph /  46.7 km/h 98 % 0.01 in /  0.25 mm
15:47 43.0 °F /  6.1 °C 42.5 °F /  5.8 °C 29.64 in /  1003.6 hPa ENE 10.8 mph /  17.4 km/h 29.0 mph /  46.7 km/h 98 % 0.02 in /  0.51 mm
15:52 43.0 °F /  6.1 °C 42.5 °F /  5.8 °C 29.64 in /  1003.6 hPa ENE 11.5 mph /  18.5 km/h 29.0 mph /  46.7 km/h 98 % 0.03 in /  0.76 mm
15:57 43.1 °F /  6.2 °C 42.6 °F /  5.9 °C 29.63 in /  1003.3 hPa East 11.8 mph /  19 km/h 29.0 mph /  46.7 km/h 98 % 0.03 in /  0.76 mm
16:02 43.1 °F /  6.2 °C 42.6 °F /  5.9 °C 29.62 in /  1002.9 hPa East 11.9 mph /  19.2 km/h 29.0 mph /  46.7 km/h 98 % 0.04 in /  1.02 mm
16:07 43.1 °F /  6.2 °C 42.6 °F /  5.9 °C 29.62 in /  1002.9 hPa ENE 11.6 mph /  18.7 km/h 29.0 mph /  46.7 km/h 98 % 0.05 in /  1.27 mm
16:12 43.1 °F /  6.2 °C 42.6 °F /  5.9 °C 29.61 in /  1002.6 hPa NE 10.6 mph /  17.1 km/h 29.0 mph /  46.7 km/h 98 % 0.05 in /  1.27 mm
16:17 43.1 °F /  6.2 °C 42.6 °F /  5.9 °C 29.61 in /  1002.6 hPa ENE 12.4 mph /  20 km/h 29.0 mph /  46.7 km/h 98 % 0.06 in /  1.52 mm
16:22 43.1 °F /  6.2 °C 42.6 °F /  5.9 °C 29.61 in /  1002.6 hPa East 10.7 mph /  17.2 km/h 29.0 mph /  46.7 km/h 98 % 0.07 in /  1.78 mm
16:27 43.1 °F /  6.2 °C 42.6 °F /  5.9 °C 29.61 in /  1002.6 hPa ENE 10.2 mph /  16.4 km/h 29.0 mph /  46.7 km/h 98 % 0.06 in /  1.52 mm
16:32 43.1 °F /  6.2 °C 42.6 °F /  5.9 °C 29.61 in /  1002.6 hPa ENE 12.8 mph /  20.6 km/h 29.0 mph /  46.7 km/h 98 % 0.07 in /  1.78 mm
16:37 43.2 °F /  6.2 °C 42.7 °F /  5.9 °C 29.61 in /  1002.6 hPa ENE 11.6 mph /  18.7 km/h 29.0 mph /  46.7 km/h 98 % 0.08 in /  2.03 mm
16:42 43.2 °F /  6.2 °C 42.7 °F /  5.9 °C 29.61 in /  1002.6 hPa East 10.5 mph /  16.9 km/h 29.0 mph /  46.7 km/h 98 % 0.09 in /  2.29 mm
16:47 43.2 °F /  6.2 °C 42.7 °F /  5.9 °C 29.61 in /  1002.6 hPa ENE 8.5 mph /  13.7 km/h 29.0 mph /  46.7 km/h 98 % 0.09 in /  2.29 mm
16:53 43.2 °F /  6.2 °C 42.7 °F /  5.9 °C 29.62 in /  1002.9 hPa ENE 9.7 mph /  15.6 km/h 29.0 mph /  46.7 km/h 98 % 0.08 in /  2.03 mm
16:58 43.2 °F /  6.2 °C 42.7 °F /  5.9 °C 29.61 in /  1002.6 hPa ENE 11.9 mph /  19.2 km/h 29.0 mph /  46.7 km/h 98 % 0.09 in /  2.29 mm
17:03 43.2 °F /  6.2 °C 42.7 °F /  5.9 °C 29.56 in /  1000.9 hPa East 17.3 mph /  27.8 km/h 29.0 mph /  46.7 km/h 98 % 0.09 in /  2.29 mm
17:08 43.2 °F /  6.2 °C 42.7 °F /  5.9 °C 29.56 in /  1000.9 hPa ENE 12.2 mph /  19.6 km/h 29.0 mph /  46.7 km/h 98 % 0.08 in /  2.03 mm
17:13 43.3 °F /  6.3 °C 42.8 °F /  6 °C 29.57 in /  1001.2 hPa ENE 9.3 mph /  15 km/h 29.0 mph /  46.7 km/h 98 % 0.09 in /  2.29 mm
17:18 43.3 °F /  6.3 °C 42.8 °F /  6 °C 29.57 in /  1001.2 hPa NE 11.0 mph /  17.7 km/h 29.0 mph /  46.7 km/h 98 % 0.09 in /  2.29 mm
17:23 43.3 °F /  6.3 °C 42.8 °F /  6 °C 29.57 in /  1001.2 hPa ENE 9.7 mph /  15.6 km/h 29.0 mph /  46.7 km/h 98 % 0.09 in /  2.29 mm
17:28 43.3 °F /  6.3 °C 42.8 °F /  6 °C 29.57 in /  1001.2 hPa ENE 9.2 mph /  14.8 km/h 29.0 mph /  46.7 km/h 98 % 0.08 in /  2.03 mm
17:33 43.4 °F /  6.3 °C 42.9 °F /  6.1 °C 29.57 in /  1001.2 hPa East 10.7 mph /  17.2 km/h 29.0 mph /  46.7 km/h 98 % 0.09 in /  2.29 mm
17:38 43.4 °F /  6.3 °C 42.9 °F /  6.1 °C 29.56 in /  1000.9 hPa ENE 8.9 mph /  14.3 km/h 29.0 mph /  46.7 km/h 98 % 0.10 in /  2.54 mm
17:43 43.4 °F /  6.3 °C 42.9 °F /  6.1 °C 29.56 in /  1000.9 hPa East 9.5 mph /  15.3 km/h 29.0 mph /  46.7 km/h 98 % 0.10 in /  2.54 mm
17:48 43.5 °F /  6.4 °C 43.0 °F /  6.1 °C 29.56 in /  1000.9 hPa ENE 9.8 mph /  15.8 km/h 29.0 mph /  46.7 km/h 98 % 0.12 in /  3.05 mm
17:53 43.5 °F /  6.4 °C 43.0 °F /  6.1 °C 29.56 in /  1000.9 hPa East 8.7 mph /  14 km/h 29.0 mph /  46.7 km/h 98 % 0.14 in /  3.56 mm
17:58 43.5 °F /  6.4 °C 43.0 °F /  6.1 °C 29.56 in /  1000.9 hPa ENE 12.8 mph /  20.6 km/h 29.0 mph /  46.7 km/h 98 % 0.14 in /  3.56 mm
18:03 43.6 °F /  6.4 °C 43.1 °F /  6.2 °C 29.56 in /  1000.9 hPa East 9.2 mph /  14.8 km/h 29.0 mph /  46.7 km/h 98 % 0.15 in /  3.81 mm
18:09 43.6 °F /  6.4 °C 43.1 °F /  6.2 °C 29.56 in /  1000.9 hPa ENE 8.6 mph /  13.8 km/h 29.0 mph /  46.7 km/h 98 % 0.15 in /  3.81 mm
18:14 43.6 °F /  6.4 °C 43.1 °F /  6.2 °C 29.56 in /  1000.9 hPa ENE 8.1 mph /  13 km/h 29.0 mph /  46.7 km/h 98 % 0.16 in /  4.06 mm
18:19 43.6 °F /  6.4 °C 43.1 °F /  6.2 °C 29.55 in /  1000.6 hPa East 9.2 mph /  14.8 km/h 29.0 mph /  46.7 km/h 98 % 0.16 in /  4.06 mm
18:24 43.6 °F /  6.4 °C 43.1 °F /  6.2 °C 29.55 in /  1000.6 hPa ENE 9.9 mph /  15.9 km/h 29.0 mph /  46.7 km/h 98 % 0.16 in /  4.06 mm
18:29 43.6 °F /  6.4 °C 43.1 °F /  6.2 °C 29.55 in /  1000.6 hPa ENE 9.5 mph /  15.3 km/h 29.0 mph /  46.7 km/h 98 % 0.16 in /  4.06 mm
18:34 43.5 °F /  6.4 °C 43.0 °F /  6.1 °C 29.54 in /  1000.2 hPa ENE 9.3 mph /  15 km/h 29.0 mph /  46.7 km/h 98 % 0.15 in /  3.81 mm
18:39 43.5 °F /  6.4 °C 43.0 °F /  6.1 °C 29.54 in /  1000.2 hPa ENE 8.3 mph /  13.4 km/h 29.0 mph /  46.7 km/h 98 % 0.14 in /  3.56 mm
18:44 43.5 °F /  6.4 °C 43.0 °F /  6.1 °C 29.53 in /  999.9 hPa East 8.5 mph /  13.7 km/h 29.0 mph /  46.7 km/h 98 % 0.12 in /  3.05 mm
18:49 43.3 °F /  6.3 °C 42.8 °F /  6 °C 29.53 in /  999.9 hPa ENE 6.4 mph /  10.3 km/h 29.0 mph /  46.7 km/h 98 % 0.10 in /  2.54 mm
18:54 43.1 °F /  6.2 °C 42.6 °F /  5.9 °C 29.53 in /  999.9 hPa ENE 3.1 mph /  5 km/h 29.0 mph /  46.7 km/h 98 % 0.08 in /  2.03 mm
18:59 43.0 °F /  6.1 °C 42.5 °F /  5.8 °C 29.52 in /  999.5 hPa NE 4.0 mph /  6.4 km/h 29.0 mph /  46.7 km/h 98 % 0.08 in /  2.03 mm
19:04 42.8 °F /  6 °C 42.3 °F /  5.7 °C 29.51 in /  999.2 hPa NE 2.0 mph /  3.2 km/h 8.0 mph /  12.9 km/h 98 % 0.00 in /  0 mm
19:09 42.8 °F /  6 °C 42.2 °F /  5.7 °C 29.51 in /  999.2 hPa NE 3.0 mph /  4.8 km/h 7.0 mph /  11.3 km/h 98 % 0.00 in /  0 mm
19:14 42.6 °F /  5.9 °C 42.1 °F /  5.6 °C 29.50 in /  998.9 hPa ENE 8.3 mph /  13.4 km/h 29.0 mph /  46.7 km/h 98 % 0.04 in /  1.02 mm
19:19 42.5 °F /  5.8 °C 42.0 °F /  5.6 °C 29.50 in /  998.9 hPa NE 4.9 mph /  7.9 km/h 29.0 mph /  46.7 km/h 98 % 0.03 in /  0.76 mm
19:24 42.5 °F /  5.8 °C 42.0 °F /  5.6 °C 29.50 in /  998.9 hPa ENE 7.0 mph /  11.3 km/h 29.0 mph /  46.7 km/h 98 % 0.02 in /  0.51 mm
19:29 42.5 °F /  5.8 °C 42.0 °F /  5.6 °C 29.50 in /  998.9 hPa ENE 7.4 mph /  11.9 km/h 29.0 mph /  46.7 km/h 98 % 0.01 in /  0.25 mm
19:34 42.5 °F /  5.8 °C 42.0 °F /  5.6 °C 29.50 in /  998.9 hPa ENE 5.6 mph /  9 km/h 29.0 mph /  46.7 km/h 98 % 0.01 in /  0.25 mm
19:39 42.6 °F /  5.9 °C 42.1 °F /  5.6 °C 29.49 in /  998.5 hPa ENE 3.5 mph /  5.6 km/h 29.0 mph /  46.7 km/h 98 % 0.01 in /  0.25 mm
19:45 42.6 °F /  5.9 °C 42.1 °F /  5.6 °C 29.49 in /  998.5 hPa ENE 5.1 mph /  8.2 km/h 29.0 mph /  46.7 km/h 98 % 0.01 in /  0.25 mm
19:50 42.6 °F /  5.9 °C 42.1 °F /  5.6 °C 29.48 in /  998.2 hPa ENE 2.4 mph /  3.9 km/h 29.0 mph /  46.7 km/h 98 % 0.01 in /  0.25 mm
19:55 42.6 °F /  5.9 °C 42.1 °F /  5.6 °C 29.48 in /  998.2 hPa NE 2.7 mph /  4.3 km/h 29.0 mph /  46.7 km/h 98 % 0.01 in /  0.25 mm
20:00 42.6 °F /  5.9 °C 42.1 °F /  5.6 °C 29.49 in /  998.5 hPa ENE 3.6 mph /  5.8 km/h 29.0 mph /  46.7 km/h 98 % 0.00 in /  0 mm
20:05 42.6 °F /  5.9 °C 42.1 °F /  5.6 °C 29.48 in /  998.2 hPa ENE 3.9 mph /  6.3 km/h 29.0 mph /  46.7 km/h 98 % 0.00 in /  0 mm
20:10 42.5 °F /  5.8 °C 42.0 °F /  5.6 °C 29.48 in /  998.2 hPa NNE 4.4 mph /  7.1 km/h 29.0 mph /  46.7 km/h 98 % 0.00 in /  0 mm
20:15 42.5 °F /  5.8 °C 42.0 °F /  5.6 °C 29.48 in /  998.2 hPa NE 2.7 mph /  4.3 km/h 29.0 mph /  46.7 km/h 98 % 0.00 in /  0 mm
20:20 42.5 °F /  5.8 °C 42.0 °F /  5.6 °C 29.47 in /  997.9 hPa ENE 2.7 mph /  4.3 km/h 29.0 mph /  46.7 km/h 98 % 0.00 in /  0 mm
20:25 42.5 °F /  5.8 °C 42.0 °F /  5.6 °C 29.47 in /  997.9 hPa ENE 3.7 mph /  6 km/h 29.0 mph /  46.7 km/h 98 % 0.00 in /  0 mm
20:30 42.5 °F /  5.8 °C 42.0 °F /  5.6 °C 29.47 in /  997.9 hPa ENE 2.6 mph /  4.2 km/h 29.0 mph /  46.7 km/h 98 % 0.00 in /  0 mm
20:35 42.4 °F /  5.8 °C 41.9 °F /  5.5 °C 29.47 in /  997.9 hPa NE 3.3 mph /  5.3 km/h 29.0 mph /  46.7 km/h 98 % 0.00 in /  0 mm
20:40 42.4 °F /  5.8 °C 41.9 °F /  5.5 °C 29.46 in /  997.5 hPa ENE 4.0 mph /  6.4 km/h 29.0 mph /  46.7 km/h 98 % 0.00 in /  0 mm
20:45 42.4 °F /  5.8 °C 41.9 °F /  5.5 °C 29.46 in /  997.5 hPa ENE 3.5 mph /  5.6 km/h 29.0 mph /  46.7 km/h 98 % 0.00 in /  0 mm
20:51 42.4 °F /  5.8 °C 41.9 °F /  5.5 °C 29.46 in /  997.5 hPa ENE 2.1 mph /  3.4 km/h 29.0 mph /  46.7 km/h 98 % 0.00 in /  0 mm
20:56 42.4 °F /  5.8 °C 41.9 °F /  5.5 °C 29.45 in /  997.2 hPa ENE 3.1 mph /  5 km/h 29.0 mph /  46.7 km/h 98 % 0.00 in /  0 mm
21:01 42.4 °F /  5.8 °C 41.9 °F /  5.5 °C 29.46 in /  997.5 hPa ENE 2.7 mph /  4.3 km/h 29.0 mph /  46.7 km/h 98 % 0.00 in /  0 mm
21:06 42.4 °F /  5.8 °C 41.9 °F /  5.5 °C 29.46 in /  997.5 hPa ENE 2.1 mph /  3.4 km/h 29.0 mph /  46.7 km/h 98 % 0.00 in /  0 mm
21:11 42.3 °F /  5.7 °C 41.8 °F /  5.4 °C 29.45 in /  997.2 hPa NE 1.8 mph /  2.9 km/h 29.0 mph /  46.7 km/h 98 % 0.00 in /  0 mm
21:16 42.3 °F /  5.7 °C 41.8 °F /  5.4 °C 29.45 in /  997.2 hPa ENE 1.9 mph /  3.1 km/h 29.0 mph /  46.7 km/h 98 % 0.00 in /  0 mm
21:21 42.3 °F /  5.7 °C 41.8 °F /  5.4 °C 29.45 in /  997.2 hPa Calm   29.0 mph /  46.7 km/h 98 % 0.00 in /  0 mm
21:26 42.3 °F /  5.7 °C 41.8 °F /  5.4 °C 29.46 in /  997.5 hPa NE 1.1 mph /  1.8 km/h 29.0 mph /  46.7 km/h 98 % 0.00 in /  0 mm
21:31 42.3 °F /  5.7 °C 41.8 °F /  5.4 °C 29.46 in /  997.5 hPa NNE 3.5 mph /  5.6 km/h 29.0 mph /  46.7 km/h 98 % 0.00 in /  0 mm
21:36 42.4 °F /  5.8 °C 41.9 °F /  5.5 °C 29.45 in /  997.2 hPa NNE 2.3 mph /  3.7 km/h 29.0 mph /  46.7 km/h 98 % 0.00 in /  0 mm
21:41 42.4 °F /  5.8 °C 41.9 °F /  5.5 °C 29.45 in /  997.2 hPa NNE 1.6 mph /  2.6 km/h 29.0 mph /  46.7 km/h 98 % 0.00 in /  0 mm
21:46 42.4 °F /  5.8 °C 41.9 °F /  5.5 °C 29.45 in /  997.2 hPa NNE 0.9 mph /  1.4 km/h 29.0 mph /  46.7 km/h 98 % 0.00 in /  0 mm
21:51 42.4 °F /  5.8 °C 41.9 °F /  5.5 °C 29.44 in /  996.8 hPa NNE 2.0 mph /  3.2 km/h 29.0 mph /  46.7 km/h 98 % 0.00 in /  0 mm
21:57 42.4 °F /  5.8 °C 41.9 °F /  5.5 °C 29.45 in /  997.2 hPa NNE 0.1 mph /  0.2 km/h 29.0 mph /  46.7 km/h 98 % 0.00 in /  0 mm
22:02 42.5 °F /  5.8 °C 42.0 °F /  5.6 °C 29.45 in /  997.2 hPa Calm   29.0 mph /  46.7 km/h 98 % 0.00 in /  0 mm
22:07 42.5 °F /  5.8 °C 42.0 °F /  5.6 °C 29.45 in /  997.2 hPa North 1.5 mph /  2.4 km/h 29.0 mph /  46.7 km/h 98 % 0.00 in /  0 mm
22:12 42.5 °F /  5.8 °C 42.0 °F /  5.6 °C 29.45 in /  997.2 hPa North 1.0 mph /  1.6 km/h 29.0 mph /  46.7 km/h 98 % 0.00 in /  0 mm
22:17 42.5 °F /  5.8 °C 42.0 °F /  5.6 °C 29.45 in /  997.2 hPa Calm   29.0 mph /  46.7 km/h 98 % 0.00 in /  0 mm
22:22 42.5 °F /  5.8 °C 42.0 °F /  5.6 °C 29.44 in /  996.8 hPa North 2.2 mph /  3.5 km/h 29.0 mph /  46.7 km/h 98 % 0.00 in /  0 mm
22:27 42.5 °F /  5.8 °C 42.0 °F /  5.6 °C 29.44 in /  996.8 hPa NNW 0.1 mph /  0.2 km/h 29.0 mph /  46.7 km/h 98 % 0.00 in /  0 mm
22:32 42.5 °F /  5.8 °C 42.0 °F /  5.6 °C 29.44 in /  996.8 hPa NW 0.9 mph /  1.4 km/h 29.0 mph /  46.7 km/h 98 % 0.00 in /  0 mm
22:37 42.4 °F /  5.8 °C 41.9 °F /  5.5 °C 29.44 in /  996.8 hPa WNW 2.0 mph /  3.2 km/h 29.0 mph /  46.7 km/h 98 % 0.00 in /  0 mm
22:42 42.4 °F /  5.8 °C 41.9 °F /  5.5 °C 29.44 in /  996.8 hPa WNW 1.2 mph /  1.9 km/h 29.0 mph /  46.7 km/h 98 % 0.00 in /  0 mm
22:47 42.4 °F /  5.8 °C 41.9 °F /  5.5 °C 29.44 in /  996.8 hPa WNW 2.1 mph /  3.4 km/h 29.0 mph /  46.7 km/h 98 % 0.00 in /  0 mm
22:52 42.4 °F /  5.8 °C 41.9 °F /  5.5 °C 29.43 in /  996.5 hPa North 2.6 mph /  4.2 km/h 29.0 mph /  46.7 km/h 98 % 0.00 in /  0 mm
22:57 42.3 °F /  5.7 °C 41.8 °F /  5.4 °C 29.44 in /  996.8 hPa NW 0.1 mph /  0.2 km/h 29.0 mph /  46.7 km/h 98 % 0.00 in /  0 mm
23:02 42.3 °F /  5.7 °C 41.8 °F /  5.4 °C 29.44 in /  996.8 hPa NW 0.5 mph /  0.8 km/h 29.0 mph /  46.7 km/h 98 % 0.01 in /  0.25 mm
23:07 42.3 °F /  5.7 °C 41.8 °F /  5.4 °C 29.44 in /  996.8 hPa NW 0.5 mph /  0.8 km/h 29.0 mph /  46.7 km/h 98 % 0.01 in /  0.25 mm
23:12 42.3 °F /  5.7 °C 41.8 °F /  5.4 °C 29.44 in /  996.8 hPa NW 0.1 mph /  0.2 km/h 29.0 mph /  46.7 km/h 98 % 0.01 in /  0.25 mm
23:17 42.3 °F /  5.7 °C 41.8 °F /  5.4 °C 29.44 in /  996.8 hPa NW 1.7 mph /  2.7 km/h 29.0 mph /  46.7 km/h 98 % 0.01 in /  0.25 mm
23:23 42.3 °F /  5.7 °C 41.8 °F /  5.4 °C 29.44 in /  996.8 hPa West 3.2 mph /  5.1 km/h 29.0 mph /  46.7 km/h 98 % 0.01 in /  0.25 mm
23:28 42.3 °F /  5.7 °C 41.8 °F /  5.4 °C 29.44 in /  996.8 hPa WNW 2.2 mph /  3.5 km/h 29.0 mph /  46.7 km/h 98 % 0.01 in /  0.25 mm
23:33 42.2 °F /  5.7 °C 41.7 °F /  5.4 °C 29.44 in /  996.8 hPa NW 2.1 mph /  3.4 km/h 29.0 mph /  46.7 km/h 98 % 0.01 in /  0.25 mm
23:38 42.2 °F /  5.7 °C 41.7 °F /  5.4 °C 29.44 in /  996.8 hPa WNW 1.7 mph /  2.7 km/h 29.0 mph /  46.7 km/h 98 % 0.01 in /  0.25 mm
23:43 42.2 °F /  5.7 °C 41.7 °F /  5.4 °C 29.43 in /  996.5 hPa WNW 1.6 mph /  2.6 km/h 29.0 mph /  46.7 km/h 98 % 0.01 in /  0.25 mm
23:48 42.1 °F /  5.6 °C 41.6 °F /  5.3 °C 29.42 in /  996.2 hPa WNW 3.1 mph /  5 km/h 29.0 mph /  46.7 km/h 98 % 0.01 in /  0.25 mm
23:53 42.1 °F /  5.6 °C 41.6 °F /  5.3 °C 29.42 in /  996.2 hPa WNW 1.9 mph /  3.1 km/h 29.0 mph /  46.7 km/h 98 % 0.01 in /  0.25 mm
23:58 42.1 °F /  5.6 °C 41.6 °F /  5.3 °C 29.43 in /  996.5 hPa WNW 1.1 mph /  1.8 km/h 29.0 mph /  46.7 km/h 98 % 0.01 in /  0.25 mm
Crab Meadow Weather
Compliments of Weather Underground - 3 mb

Script developed by  Jim McMurry - jmcmurry@mwt.net Adapted for the template by  Wim van der Kuil - Leuven-Template.eu

Snow: Snowflakes generally fall from the sky at speeds between one and five miles per hour.